Showing default

FLOCK 4BE 23, 60490

Orbit data source: Space-Track

FLOCK 4BE 23, 60490 is a payload satellite owned by Planet (US) in SSO that was launched on Fri, 16 Aug 2024 UTC via an FALCON 9 launch vehicle from the Air Force Western Test Range (AFWTR). Payload-class satellites include a variety of spacecraft equipped with specific instruments for various scientific and technological missions. These include communications satellites like Starlink; space stations such as the ISS; scientific satellites like the Hubble; Earth observation satellites from companies like Planet Labs, Umbra, and HawkEye 360; GPS; miniature CubeSats for education and research; and military/defense satellites.

Loading next visibility...
Identifier
60490, 2024-149Y
Orbit
SSO
Country
Flag of USUS
Related business
Manufacturer
Planet
Mission
Operational Commercial Imaging
Bus & Motor
CUBESAT 3U, Unknown motor
Mass
5.7 kg wet, 5.7 kg dry
Launch date (UTC)
2024-08-16 (2 years ago)
Launch vehicle
FALCON 9
Launch site
Air Force Western Test Range (AFWTR)
Object type
Payload
Rocket body
Debris
Shape & HBR
Box + 2 Pan, 1.0 m
Radar Cross Section
0.072 m², Medium (>0.1 m² and < 1m²)

Expand to show TLE details & history
Last TLE update: 7 hours ago

TLE from 7 hours ago
0 FLOCK 4BE 23
1 60490U 24149Y   26129.76412220  .00010059  00000-0  28277-3 0  9997
2 60490  97.3775 212.0167 0004436  71.0898 289.0827 15.36699784 96298
Epoch: 2026-05-09T18:20Z
TLE epoch observation values (Epoch: 2026-05-09T18:20:20.158Z)
Latitude
0.00002°
Longitude
69.35583°
Altitude
458 km
Speed
7.638 km/s
True Right ascension
14h 08m 04s
True Declination
0° 00' 00"
Sunlit
Object was in full shadow at epoch
Visualization orbit readout
Latitude
Unknown
Longitude
Unknown
Altitude
Unknown
Speed
Unknown
Apparent Right ascension
Unknown
Apparent Declination
Unknown
Sunlit
N/A
Visualization observer readout
Local Sidereal Time
09:45:58
Azimuth
Unknown
Elevation
Unknown
Doppler factor
Unknown
Orbital elements
Apogee altitude
455.849 km
Perigee altitude
449.788 km
Semi-major axis
6,830.956 km
Eccentricity
0.00044
Inclination
97.3775°
RAAN
212.0167°
Arg. of periapsis
71.0898°
True anomaly
289.03465°
Mean anomaly
289.0827°
Eccentric anomaly
289.05868°
Mean motion
3.84433 °/min
Orbital period
93.64 mins
BSTAR
0.00028277
Loading maneuver chart data...
Computing Atmospheric mass density...
Loading historical data...
Loading historical data...
Loading historical data...
Loading historical data...
Loading historical data...
Loading historical data...
Loading historical data...

Documentation

Showing up to 5 results
|